Theta_e
342 343 342 342 344 346 351 348 347 347 348 346 346 346 347 349 353 352 351 352 352 351 352 352 351 351 351 348 341 335 337 335 332 325 332 330 330 330 337 338 343 342 341
342 342 342 341 342 344 347 352 350 348 346 346 348 350 349 348 352 353 352 354 352 351 351 351 350 353 349 347 341 330 329 330 324 322 325 326 327 328 331 330 334 339 335
344 344 344 344 343 343 345 348 350 350 348 346 346 348 351 350 351 353 354 354 353 353 353 352 351 351 347 345 336 332 330 333 328 324 323 326 327 327 327 327 329 329 334
346 345 346 346 348 347 346 346 348 352 352 349 348 348 351 352 353 354 355 354 355 355 355 354 354 352 350 346 337 333 332 330 329 326 323 321 322 325 326 325 325 327 329
346 347 347 350 351 351 350 350 349 349 351 351 350 348 349 353 354 355 355 356 356 355 355 356 356 355 351 349 343 334 333 331 327 324 318 320 321 323 323 325 323 325 325
346 347 349 349 351 352 352 352 352 351 350 350 350 349 348 353 348 348 354 355 357 356 355 357 358 353 349 344 342 339 337 330 321 317 319 321 321 323 325 323 320 317 315
346 347 348 348 348 349 351 351 352 352 351 349 349 349 348 348 342 344 349 356 355 356 356 357 356 359 347 346 340 338 335 332 327 322 323 322 321 324 320 315 313 313 313
346 346 345 345 348 348 347 348 349 351 351 350 349 349 348 348 339 339 345 354 354 355 355 355 355 354 348 342 337 330 330 330 331 329 323 322 318 317 316 315 313 313 315
339 340 340 339 338 342 343 346 348 347 348 350 351 349 349 349 337 335 340 351 353 354 356 357 355 351 338 334 334 330 324 320 322 324 323 324 324 324 320 314 312 310 308
345 346 348 350 349 341 338 339 344 346 346 348 349 350 346 350 337 332 337 350 351 354 339 327 326 324 322 330 333 328 321 316 318 318 317 316 314 316 320 313 312 307 307
343 343 342 342 344 347 350 351 343 341 342 344 345 347 347 342 349 328 329 351 353 339 326 322 323 323 322 321 323 324 320 320 321 317 313 311 311 311 309 309 309 308 305
340 339 338 339 344 349 345 347 349 353 351 344 339 328 329 330 326 325 327 334 335 328 324 324 328 323 320 320 319 318 318 320 315 312 310 309 308 307 307 308 308 307 307
337 335 334 334 333 331 331 333 342 352 354 347 334 328 327 329 327 325 324 324 325 325 325 324 321 319 317 318 319 319 318 315 313 311 309 309 308 307 307 307 308 307 307
328 330 334 332 326 320 319 320 326 342 355 338 332 327 327 328 327 327 325 325 325 326 324 322 320 320 320 320 317 318 315 313 313 311 310 308 307 306 305 305 304 305 303
329 329 328 320 319 315 309 306 307 316 324 337 335 330 328 327 326 322 322 327 324 319 319 319 318 316 313 312 314 315 315 315 312 310 307 306 306 305 304 304 303 302 301
332 334 322 317 318 317 315 315 309 305 304 305 311 322 321 316 310 306 306 308 309 311 316 315 315 314 314 315 314 313 313 314 307 305 304 305 305 304 303 303 303 301 301
329 322 320 320 319 318 318 321 317 314 307 302 302 305 306 305 304 303 304 307 308 313 316 315 316 315 313 313 310 306 305 306 305 303 302 305 304 302 302 302 302 301 301
322 316 320 317 315 313 313 313 313 312 308 307 304 303 300 301 301 302 306 311 315 316 317 316 313 311 308 306 304 304 302 303 301 300 299 299 299 299 300 301 300 300 300
322 319 316 314 314 313 313 312 312 311 310 310 311 308 306 300 302 304 309 317 315 314 313 312 308 307 307 304 304 304 302 300 299 298 297 298 299 299 299 300 300 302 301
320 318 315 315 315 315 315 314 313 313 312 311 310 312 312 312 311 311 312 313 312 310 310 308 308 307 306 304 303 302 298 297 297 297 297 297 296 297 298 299 300 300 299
319 319 318 317 316 316 315 314 313 312 311 312 310 308 305 311 309 310 310 310 309 308 307 307 306 305 305 302 301 299 297 297 296 295 295 294 295 295 296 298 299 299 299
319 319 318 317 317 316 314 313 311 311 311 309 307 305 304 310 309 309 310 310 310 309 309 307 305 304 302 302 300 298 296 296 295 294 294 293 293 294 296 297 298 299 299
313 313 312 311 311 310 310 310 310 310 310 310 310 310 310 310 309 309 310 309 307 306 306 305 304 304 303 303 301 299 296 295 294 294 293 292 292 294 296 297 298 298 298
310 309 308 307 307 306 306 306 306 305 308 308 308 308 306 305 304 304 304 305 305 304 304 305 305 304 303 301 299 297 295 294 293 293 292 292 293 296 297 298 298 298 298
307 306 305 305 305 305 305 304 305 306 306 305 304 304 302 302 302 303 302 302 302 302 302 302 302 303 302 299 297 295 292 291 291 291 290 292 294 298 299 298 299 300 301
307 306 305 304 303 303 303 303 302 302 302 302 302 301 302 302 301 301 301 301 300 300 300 301 300 301 302 301 299 294 286 286 290 287 290 294 298 298 297 298 298 298 299
Wind_Speed
14 13 12 12 11 9 9 8 10 7 7 7 7 7 7 7 7 7 7 6 6 5 4 6 6 3 4 3 3 2 3 3 4 2 1 1 2 2 3 3 1 2 3
15 14 14 12 12 12 12 10 7 9 7 8 7 7 7 7 7 9 10 8 8 7 7 6 7 4 6 4 3 4 3 3 3 3 1 2 2 1 2 3 3 3 2
14 14 12 12 12 14 14 12 7 8 8 7 7 8 8 7 8 9 10 9 8 9 8 8 8 7 6 4 5 5 3 2 2 2 3 1 3 1 2 2 2 3 2
13 14 15 15 15 14 13 12 12 11 11 9 9 8 8 8 9 10 10 9 9 9 10 9 9 9 9 8 7 7 5 5 4 3 2 2 1 2 1 1 3 1 3
15 14 16 15 13 12 12 13 12 11 13 15 11 7 7 9 9 11 11 10 10 9 9 10 10 10 13 11 7 8 9 6 5 5 3 3 3 1 2 1 2 2 3
15 16 15 12 12 12 12 12 12 13 13 12 13 11 9 10 13 16 14 10 10 10 11 12 11 13 11 11 12 15 13 9 5 4 3 3 3 4 3 2 2 1 4
17 14 12 12 13 13 12 10 12 14 11 13 14 13 14 13 15 18 19 11 10 12 13 11 9 7 7 8 13 8 7 4 5 6 4 3 3 3 1 2 3 2 3
11 11 10 9 11 9 8 11 12 11 13 13 12 13 13 13 13 18 19 15 11 13 13 12 10 9 9 7 6 6 6 5 5 4 4 3 2 2 2 2 1 3 4
6 6 6 7 8 7 10 12 12 10 11 13 12 13 15 15 17 18 16 13 13 14 11 9 7 7 4 6 5 4 8 7 10 10 10 9 8 5 4 3 1 2 2
5 5 5 4 5 7 8 9 10 11 13 11 14 14 15 16 12 16 16 9 10 9 6 12 25 22 30 14 12 5 10 2 7 5 2 4 3 2 5 3 2 1 2
3 4 3 2 1 4 5 4 6 9 11 12 12 11 9 6 12 15 19 11 9 4 7 7 10 27 26 28 14 10 7 7 9 3 2 2 1 1 2 2 3 3 1
1 2 3 5 4 4 5 5 6 7 8 9 5 3 1 1 6 9 14 11 14 10 9 9 10 23 22 19 15 24 20 11 7 5 3 2 2 0 2 1 2 0 3
5 2 1 3 3 4 5 6 4 5 7 5 4 4 3 1 1 12 18 20 16 12 8 11 19 17 17 13 15 16 17 7 7 4 3 3 3 2 3 4 3 2 4
5 5 4 4 4 4 3 4 5 5 4 5 5 5 4 4 4 5 8 9 14 10 13 9 6 6 7 11 11 10 6 7 5 4 3 1 0 1 2 1 3 3 3
7 5 3 1 1 3 4 5 5 6 4 4 7 8 9 7 5 7 10 9 9 10 11 6 4 2 4 5 4 4 4 4 4 3 2 3 3 2 2 1 1 2 2
6 2 1 2 1 2 2 2 13 12 15 9 9 6 4 12 15 9 11 16 17 11 5 6 4 5 5 5 6 4 3 5 4 3 3 2 1 1 3 2 1 2 4
2 2 3 4 3 2 3 1 2 8 23 24 17 15 15 14 16 13 13 13 9 5 5 6 5 4 5 5 5 4 3 3 3 3 2 3 1 2 2 2 3 3 3
5 6 4 4 4 4 4 5 5 5 7 6 16 12 14 14 13 13 9 6 4 4 3 5 6 6 5 5 5 4 4 4 4 4 3 2 1 0 2 3 2 3 4
1 3 4 5 5 8 7 8 7 8 8 7 7 9 9 11 7 11 10 3 4 5 4 4 5 5 5 5 5 4 5 5 4 3 2 2 1 1 3 4 4 5 5
2 10 8 5 6 6 7 9 8 9 9 4 9 4 3 5 6 5 4 4 4 4 5 5 4 5 4 4 4 5 5 5 4 3 2 1 1 1 3 4 4 4 4
2 5 11 8 7 7 6 7 6 7 8 3 5 5 8 7 6 6 5 5 4 5 5 5 5 3 3 4 5 5 4 4 3 3 2 1 1 2 3 4 4 4 5
5 5 6 6 6 7 7 7 6 7 6 5 5 5 8 7 7 6 6 5 5 4 3 4 4 4 4 4 5 5 5 4 3 3 2 1 1 3 3 3 3 3 4
6 7 7 7 7 9 8 6 7 6 7 8 8 7 6 5 6 4 6 3 3 1 1 3 4 4 2 4 4 5 5 5 4 4 2 1 3 3 2 2 3 3 3
6 6 6 5 6 6 6 5 4 6 6 5 5 4 4 3 4 5 4 4 4 3 2 3 4 5 5 4 4 4 3 3 3 2 2 3 4 4 3 2 2 2 3
5 5 5 5 5 4 5 5 4 4 4 3 3 2 1 2 3 3 3 3 3 4 5 4 4 5 7 8 7 7 5 7 4 4 2 3 4 5 4 3 3 2 1
5 5 4 4 4 4 3 3 3 2 3 2 2 2 2 3 3 4 4 4 3 4 5 4 6 8 9 7 8 9 8 7 6 6 4 3 2 2 3 4 4 2 5
Wind_Direction
193 197 200 204 205 205 208 201 202 201 207 204 201 207 208 206 198 192 201 208 211 224 231 224 235 203 214 203 197 172 178 158 185 295 226 258 345 341 360 4 356 313 297
195 195 200 201 205 210 215 212 198 208 208 205 200 204 208 208 195 203 204 204 198 209 221 222 226 202 226 208 191 187 191 160 138 199 265 307 211 294 347 56 33 44 54
190 193 200 204 204 210 214 214 202 208 216 210 201 207 205 200 198 209 208 204 204 210 214 209 224 201 218 192 191 182 187 142 128 140 237 277 273 330 12 358 357 336 293
193 198 202 203 204 209 210 213 214 212 223 221 217 212 199 193 202 204 207 207 208 213 218 217 225 214 215 204 186 181 172 165 163 152 198 252 320 319 292 239 315 341 300
192 200 209 208 209 209 209 210 211 208 222 233 229 218 204 201 206 207 208 213 211 215 222 225 228 218 218 200 174 189 177 171 165 165 173 173 204 224 223 276 275 268 274
192 205 208 203 201 208 208 207 209 215 218 224 231 222 200 221 211 201 203 210 213 214 224 231 226 225 230 210 206 189 184 169 174 149 177 189 193 197 192 211 220 303 302
194 199 204 202 206 208 205 198 213 219 220 224 226 226 227 227 208 205 201 212 210 217 223 232 229 225 216 199 204 214 157 134 153 158 173 184 167 192 105 292 258 221 233
193 189 184 191 209 207 200 213 217 215 218 222 228 229 232 236 214 207 203 213 212 220 223 227 223 210 192 174 171 147 143 111 76 61 82 151 148 109 179 192 301 297 289
130 158 181 185 198 199 211 219 222 217 222 226 226 228 228 235 214 206 193 215 220 227 225 222 223 216 210 166 138 138 102 75 61 87 99 99 84 88 108 85 17 35 286
70 97 103 113 196 219 224 226 228 223 228 225 232 230 229 241 217 203 192 211 222 227 70 76 66 65 43 326 106 132 83 7 105 92 144 95 77 71 78 88 155 158 286
43 52 32 25 275 248 250 235 227 233 239 237 237 238 242 249 231 193 188 198 209 119 120 109 114 107 105 120 134 168 167 148 151 146 78 99 107 98 90 60 81 126 91
87 55 354 335 338 336 299 268 243 246 247 238 197 123 74 75 142 156 167 186 145 144 157 156 152 127 140 155 161 149 151 154 136 142 173 123 102 340 327 333 109 139 204
328 16 24 351 355 339 317 308 297 238 230 205 167 157 151 116 95 170 154 144 146 132 151 159 157 159 149 139 152 142 143 153 140 153 155 154 202 252 321 316 319 287 278
316 325 338 334 341 18 357 337 307 281 265 148 156 164 164 149 134 127 125 124 115 114 122 129 157 128 136 133 143 145 141 120 139 151 157 199 344 311 285 306 311 345 335
321 304 260 132 126 96 72 26 326 288 284 184 188 173 166 169 166 148 140 137 126 126 119 116 130 171 115 119 108 115 114 110 118 109 162 208 208 181 273 263 267 285 221
267 232 125 103 54 85 91 73 41 35 37 50 79 130 69 104 101 61 86 104 112 126 101 132 134 126 131 134 132 109 85 130 117 153 165 177 232 234 280 298 243 244 269
353 74 84 79 71 48 60 23 51 54 54 41 44 68 74 101 100 101 98 113 137 103 123 138 132 133 125 127 128 124 114 117 132 139 109 119 142 288 304 314 303 269 278
64 75 95 91 90 79 63 61 42 45 70 48 34 50 70 88 100 103 115 121 79 40 113 128 127 125 125 120 114 111 119 118 105 109 107 96 100 300 296 281 285 281 289
84 95 99 98 103 96 89 82 78 74 71 76 72 51 43 78 92 79 76 80 104 99 95 93 104 117 119 113 116 124 118 124 119 130 123 106 14 238 268 288 301 277 272
40 96 93 97 88 89 93 96 85 84 71 44 84 3 61 13 45 39 50 56 73 82 88 94 84 92 93 120 122 123 123 106 125 129 138 130 319 305 297 300 300 303 295
103 87 88 75 74 72 73 75 81 82 88 55 78 87 74 85 68 58 53 49 67 75 71 90 105 115 150 140 124 121 112 120 150 141 124 51 355 309 289 280 279 279 282
45 53 65 66 74 75 79 91 96 90 84 70 37 27 47 65 75 70 65 71 65 62 88 129 164 156 164 147 140 134 132 161 180 180 175 180 287 284 288 282 290 305 306
52 52 56 59 62 69 67 59 65 62 74 79 88 86 84 84 104 124 129 151 124 118 155 139 123 112 133 161 151 148 164 194 188 164 161 287 287 278 277 276 310 322 326
70 66 68 57 65 71 80 82 80 77 93 96 103 117 139 141 148 169 162 156 159 167 158 160 163 161 169 181 173 172 176 158 156 169 156 245 274 300 285 270 283 288 318
73 74 74 81 79 85 83 77 67 62 78 96 105 117 118 132 141 175 176 178 166 177 199 189 189 196 194 188 188 192 190 175 176 177 197 232 257 289 291 279 289 298 322
91 90 89 86 83 87 97 92 82 97 117 131 120 138 173 195 197 201 208 213 210 215 215 209 210 214 205 204 207 196 183 199 205 213 225 211 232 290 309 290 312 337 324